Regional Weather Roundup
Issued by NWS

Home | Current Version | Previous Version | Text Only | Print | Product List | Glossary On
Versions: 1 2 3 4 5 6 7 8 9 10 11 12 13 14 15 16 17 18 19 20 21 22 23 24 25 26 27 28 29 30 31 32 33 34 35 36 37 38 39 40 41 42 43 44 45 46 47 48 49 50
000
ASUS43 KTOP 240308
RWRKS

WEATHER ROUNDUP FOR KANSAS
NATIONAL WEATHER SERVICE GOODLAND KS
1000 PM CDT THU MAR 23 2017

NOTE:  "FAIR" INDICATES FEW OR NO CLOUDS BELOW 12,000 FEET WITH NO
SIGNIFICANT WEATHER AND/OR OBSTRUCTIONS TO VISIBILITY.

KSZ001>006-013>018-027>032-041>047-240400-
NORTHWEST KANSAS

CITY           SKY/WX    TMP DP  RH WIND       PRES   REMARKS
GOODLAND       CLOUDY    68  41  37 S31G44    29.57R
HAYS             N/A     71  48  43 S15       29.62R
HILL CITY      LGT RAIN  64  53  67 S9        29.61F
RUSSELL        MOCLDY    74  47  38 S20G30    29.64R
$$

KSZ061>065-074>080-084>089-240400-
SOUTHWEST KANSAS

CITY           SKY/WX    TMP DP  RH WIND       PRES   REMARKS
DODGE CITY     CLOUDY    71  46  40 S18       29.66R
ELKHART          N/A     58  43  58 SE24        N/A
GARDEN CITY    CLOUDY    60  51  72 S6        29.59F
GREAT BEND     CLOUDY    73  48  41 S24G33    29.64R
LIBERAL        CLOUDY    66  52  59 S17       29.60R
PRATT          CLOUDY    70  45  40 S18G29    29.66R
$$

KSZ066>073-081>083-090>101-240400-
SOUTHEAST KANSAS

CITY           SKY/WX    TMP DP  RH WIND       PRES   REMARKS
CHANUTE        CLEAR     71  49  45 SE20G30   29.79R
COFFEYVILLE    CLEAR     72  52  49 SE16      29.80R
HUTCHINSON     CLOUDY    73  45  36 SE23G30   29.67S
MEDICINE LODGE   N/A     73  46  38 S16G30    29.64S
NEWTON         MOCLDY    72  47  40 S20G26    29.72R
PARSONS        PTCLDY    72  51  47 S14G25    29.79F
WICHITA INTL   CLOUDY    74  46  36 S23G33    29.71R
WICHITA JABRA  MOCLDY    72  49  44 S21G36    29.72R
WICHITA MCCONL MOCLDY    73  47  39 S21G28    29.72R
WINFIELD       MOCLDY    74  46  36 S25G37    29.75R
$$

KSZ007>012-019>026-033>040-048>060-102>105-240400-
NORTHEAST KANSAS

CITY           SKY/WX    TMP DP  RH WIND       PRES   REMARKS
CONCORDIA      CLOUDY    72  52  49 S16       29.65R
EMPORIA        PTCLDY    70  52  52 S25G31    29.74R
LAWRENCE       PTCLDY    69  47  45 SE20G28   29.77R
MANHATTAN      CLOUDY    71  51  49 S14       29.70R
MARYSVILLE     CLOUDY    70  50  49 S15       29.68F
OLATHE IND     PTCLDY    69  46  43 S20G26    29.79S
OLATHE EXE     PTCLDY    68  47  46 S18G26    29.79S
SALINA         MOCLDY    76  47  35 S30G38    29.63F
TOPEKA BILLARD CLOUDY    70  49  47 SE18G24   29.74S
TOPEKA FORBES  CLOUDY    70  49  47 SE17G25   29.74S
$$



USA.gov is the U.S. government's official web portal to all federal, state and local government web resources and services.